Погода в Портраше

Великобритания     55°12′12″N   6°39′10″W
темп.,
°C
ветер,
м/с
пор.,
м/с
влажн.,
%
обл.,
%
осадки,
мм/ч
давл.,
гПа
погр.,
м
26 октября, вт
вт2601:00+11ююз81282100 0.0 1008690
04:00+10ю91487100 1.6 1004800
07:00+12ююз111887100 2.3 1003809
10:00+14юз91584100 0.5 1003686
13:00+15ююз111783100 0.8 1003705
16:00+15юз131985100 0.3 1001845
19:00+15ююз131978100 0.4 1001880
22:00+15ююз132083100 0.7 1000873
27 октября, ср
ср2701:00+14зюз61090100 6.3 1001436
04:00+14юз5983100 1.2 1002327
07:00+14ююз71183100 1.2 1003459
10:00+14ю71384100 0.0 1003632
13:00+15ю61084100 0.1 1003270
16:00+14ю5986100 0.1 1001235
19:00+14ю61091100 0.2 1000354
22:00+14ююз5891100 0.6 1000299
28 октября, чт
чт2801:00+12зюз81178100 0.9 1001904
04:00+11ююз698073 0.0 1001495
07:00+10ююв5785100 0.0 1001242
10:00+11ююв7987100 0.0 1000291
13:00+12ююв6984100 0.0 998571
16:00+12юв3689100 2.0 995365
19:00+11юз2292100 4.2 995198
22:00+11юз4688100 0.0 994282
29 октября, пт
пт2901:00+11ююз458476 0.0 994267
04:00+11юз5784100 0.0 994401
07:00+10ю568416 0.0 994311
10:00+10ю578299 0.0 995288
13:00+11ююз5878100 0.0 995587
16:00+12ю687498 0.1 994762
19:00+11ююв6884100 0.1 994452
22:00+10ю5884100 0.0 994316
30 октября, сб
сб3001:00+10ю5884100 0.0 993416
04:00+9ю588434 0.0 993307
07:00+8ю67865 0.0 993236
10:00+8ю69860 0.0 994351
13:00+11ююз697565 0.0 995628
16:00+11ююз6776100 0.3 996693
19:00+10ю457915 0.4 996346
22:00+9ююв447919 0.0 996179